Tracking 19795 objects as of 20-Jul-2019
HD Live streaming from Space Station
objects crossing your sky now

TEMPSAT 1

Track TEMPSAT 1 now!
10-day predictions
TEMPSAT 1 is classified as:


NORAD ID: 1512
Int'l Code: 1965-065E
Perigee: 1,087.6 km
Apogee: 1,194.5 km
Inclination: 89.9 °
Period: 108.0 minutes
Semi major axis: 7512 km
RCS: 0.0695 m2 (small)
Launch date: August 13, 1965
Source: United States (US)
Launch site: AIR FORCE WESTERN TEST RANGE (AFWTR)
aabbcc
Your satellite tracking list
Your tracking list is empty




NASA's NSSDC Master Catalog

Two Line Element Set (TLE):
1  1512U 65065E   19200.59118731 +.00000014 +00000-0 +72576-5 0  9995
2  1512 089.8554 230.4272 0071175 136.3684 021.5680 13.33420808623591
Source of the keplerian elements: AFSPC